Regional Weather Roundup
Issued by NWS Charleston, SC

Current Version | Previous Version | Graphics & Text | Print | Product List | Glossary On
Versions: 1 2 3 4 5 6 7 8 9 10 11 12 13 14 15 16 17 18 19 20 21 22 23 24 25 26 27 28 29 30 31 32 33 34 35 36 37 38 39 40 41 42 43 44 45 46 47 48 49 50
000 ASUS42 KCHS 230227 RWRCHS REGIONAL WEATHER ROUNDUP NATIONAL WEATHER SERVICE CHARLESTON SC 900 PM EST SUN JAN 22 2017 NOTE: "FAIR" INDICATES FEW OR NO CLOUDS BELOW 12,000 FEET WITH NO SIGNIFICANT WEATHER AND/OR OBSTRUCTIONS TO VISIBILITY. NOT ALL STATIONS ARE QUALITY CONTROLLED. USE DATA WITH CAUTION... ESPECIALLY DEWPOINT OBSERVATIONS. SCZ027-030-031-034>040-042>050-230300- ...SOUTHEAST SOUTH CAROLINA... CITY SKY/WX TMP DP RH WIND PRES REMARKS N CHARLESTON CLOUDY 63 60 90 E6 29.33F WATERFRONT PRK N/A 61 61 100 E15 29.34F MOUNT PLEASANT MOCLDY 63 63 100 SE10 29.35F THUNDER FOG JOHNS ISLAND MOCLDY 64 63 94 SE18 29.33F PINOPOLIS N/A 61 61 100 SE7 29.25 MONCKS CORNER DRIZZLE 59 59 100 SE6 29.36S SUMMERVILLE DRIZZLE N/A N/A N/A SE6 29.35F BEAUFORT MCAS MOCLDY 63 61 93 SE6 29.32F BEAUFORT ARPT MOCLDY 64 63 94 S17G23 29.31F HILTON HEAD IS PTCLDY 64 64 100 VRB7G16 29.33S WALTERBORO MOCLDY 59 59 100 SE13 29.31F ALLENDALE CLOUDY 63 61 94 SE9 29.27F ...SOUTHERN MIDLANDS AND PEE DEE... CITY SKY/WX TMP DP RH WIND PRES REMARKS GEORGETOWN CLOUDY 61 59 94 E10 29.39F KINGSTREE RAIN 59 57 94 SE12G17 29.38F ORANGEBURG CLOUDY 60 58 92 SE9 29.30F BARNWELL CLOUDY 63 61 94 SE16 29.27F AIKEN CLOUDY 57 55 94 SE6 29.31F MANNING CLOUDY 59 50 72 SE7 29.35F COLUMBIA LGT RAIN 62 59 90 E18G29 29.29F SUMTER CLOUDY 60 58 94 E12 29.31F FLORENCE LGT RAIN 60 60 100 E13 29.39F MYRTLE BEACH CLOUDY 61 55 82 VRB7 29.48F N MYRTLE BEACH HVY RAIN 59 59 100 NE6 29.46R FOG $$ GAZ063-065-086>088-099>101-113>116-118-119-134>141-150-230300- ...SOUTHEAST GEORGIA... CITY SKY/WX TMP DP RH WIND PRES REMARKS SAVANNAH ARPT MOCLDY 62 59 90 S8 29.32F HUNTER AAF PTCLDY 62 62 99 S5 29.30F FORT STEWART MOCLDY 63 61 94 SW13 29.31R STATESBORO MOCLDY 63 32 30 SW6 29.30R SYLVANIA LGT RAIN N/A N/A N/A S7 29.31R CLAXTON MOCLDY N/A N/A N/A SW16G23 29.33R ...CSRA...CENTRAL AND FAR SOUTHEAST GEORGIA... CITY SKY/WX TMP DP RH WIND PRES REMARKS THOMSON CLOUDY 63 63 100 CALM 29.30S AUGUSTA-BUSH CLOUDY 62 59 90 CALM 29.26S AUGUSTA-DANIEL LGT RAIN 61 57 87 E6 29.26F SWAINSBORO MOCLDY 59 54 82 MISG 29.35R VIDALIA CLEAR 59 55 88 W8 29.37R EASTMAN FAIR 57 46 65 W8 29.39R HAZLEHURST FAIR 60 57 92 SW6 29.37R ALMA CLEAR 60 53 77 W9 29.38R WAYCROSS CLEAR 64 56 77 W12 29.41R JESUP MOCLDY 63 52 67 E10G20 29.39R BAXLEY FAIR 61 55 82 W7 29.38R BRUNSWICK CLOUDY 68 64 88 W12G23 29.38R SAINT SIMONS CLEAR 68 64 87 SW16G23 29.36R $$ SCZ027-028-034-036>038-045-046-048>050-GAZ119-141-230300- ...LAKE AND SUPPLEMENTAL COASTAL OBSERVATIONS... STATION/POSITION TIME TEMP WIND PRES WAVE SWELL AIR SEA DIR/SP/G HT/PER HT/PER/DIR (UTC) (F) (DEG/KT/KT) (MB) (FT/S) (FT/S/D) WINYAH BAY 0145 61 140/ 5 996.0S LAKE MURRAY 0120 60 90/ 14/ 16 992.6 ACE BASIN NERRS 0145 62 100/ 5 994.0F FORT PULASKI 0200 65 59 210/ 8/ 13 N/A SAPELO ISLAND 0200 64 180/ 10 994.0 $$ ANZ835-935-AMZ111-154-330-350-352-354-370-450-454-472-230300- ...C-MAN AND BUOY OBSERVATIONS... STATION/POSITION TIME TEMP WIND PRES WAVE SWELL AIR SEA DIR/SP/G HT/PER HT/PER/DIR (UTC) (F) (DEG/KT/KT) (MB) (FT/S) (FT/S/D) BUOY 41004 0050 68 67 120/ 23/ 27 995.6 6/ 8 5/190/ 8 BUOY 41008 0050 65 60 170/ 17/ 23 993.3 5/ 7 2/100/11 FOLLY BEACH CMAN 0100 61 120/ 20/ 22 994.8F CAPERS NEARSHORE 0108 60 56 140/ 19/ 27 994.7F FRIPP NEARSHORE 0208 64 58 150/ 16/ 21 992.8F STATION/POSITION TIME TEMP WIND PRES WAVE SWELL AIR SEA DIR/SP/G HT/PER HT/PER/DIR (UTC) (F) (DEG/KT/KT) (MB) (FT/S) (FT/S/D) 5E ST. MARYS GA 0200 63 N/A 4/ 7 FRYING PAN BUOY 0120 140/ 19/ 25 998.0 BUOY 41025 NOT AVBL CAPE LOOKOUT NC 0100 61 40/ 9/ 10 999.7F BUOY 41002 0050 69 71 340/ 10/ 12 1003.0 11/ 8 10/230/ 8 BUOY 41010 NOT AVBL ST AUGUSTINE FL 0100 74 67 210/ 21/ 31 996.9R $$

USA.gov is the U.S. government's official web portal to all federal, state and local government web resources and services.